Andalusia, AL

8:41 PM CDT on July 25, 2016 (GMT -0500)
Andalusia

Weather History for K79J - March, 2014

Change the Weather History Date:

Wednesday, March 19, 2014

  Actual Average (KCEW) Record (KCEW)
Temperature  
Mean Temperature 62 °F -  
Max Temperature 75 °F 73 °F 88 °F (2011)
Min Temperature 48 °F 46 °F 33 °F (1949)
Degree Days  
Heating Degree Days 4    
Growing Degree Days 12 (Base 50)    
Moisture  
Dew Point 48 °F    
Average Humidity 69    
Maximum Humidity 93    
Minimum Humidity 35    
Precipitation  
Precipitation 0.00 in - - ()
Sea Level Pressure  
Sea Level Pressure 30.08 in    
Wind  
Wind Speed 1 mph (West)    
Max Wind Speed 8 mph    
Max Gust Speed -    
Visibility 7 miles    
Events      
Averages and records for this station are not official NWS values.
T = Trace of Precipitation, MM = Missing Value Source: NWS Daily Summary

Daily Weather History Graph

Daily Weather History Graph

Search for Another Location

Airport or City:

Trip Planner

Search our weather history database for the weather conditions in past years. The results will help you decide how hot, cold, wet, or windy it might be!

Date:

Astronomy

Mar. 19, 2014 Rise Set
Actual Time 6:50 AM CDT 6:56 PM CDT
Civil Twilight 6:26 AM CDT 7:20 PM CDT
Nautical Twilight 5:58 AM CDT 7:48 PM CDT
Astronomical Twilight 5:29 AM CDT 8:17 PM CDT
Moon 10:00 PM CDT (3/19) 8:27 AM CDT (3/19)
Length of Visible Light 12h 54m
Length of Day
12h 05m
Waning Gibbous, 91% of the Moon is Illuminated
Mar 19
Waning Gibbous
Mar 23
Last Quarter
Mar 30
New
Apr 7
First Quarter
Apr 15
Full

Hourly Weather History & Observations

Time (CDT) Temp. Dew Point Humidity Pressure Visibility Wind Dir Wind Speed Gust Speed Precip Events Conditions
12:56 AM 55.0 °F 48.9 °F 80% 30.04 in 10.0 mi Calm Calm - N/A   Overcast
1:56 AM 54.0 °F 48.9 °F 83% 30.05 in 9.0 mi Calm Calm - N/A   Scattered Clouds
2:35 AM 51.8 °F 46.4 °F 82% 30.06 in 1.2 mi Calm Calm - N/A   Haze
2:37 AM 51.8 °F 46.4 °F 82% 30.06 in 0.8 mi Calm Calm - N/A   Haze
2:56 AM 50.0 °F 46.0 °F 86% 30.05 in 0.8 mi Calm Calm - N/A   Mist
3:13 AM 50.0 °F 46.4 °F 87% 30.04 in 1.2 mi Calm Calm - N/A   Partly Cloudy
3:16 AM 50.0 °F 46.4 °F 87% 30.04 in 2.5 mi Calm Calm - N/A   Partly Cloudy
3:23 AM 48.2 °F 44.6 °F 87% 30.05 in 1.2 mi Calm Calm - N/A   Scattered Clouds
3:27 AM 48.2 °F 46.4 °F 93% 30.05 in 1.5 mi Calm Calm - N/A   Mostly Cloudy
3:31 AM 48.2 °F 46.4 °F 93% 30.05 in 3.0 mi Calm Calm - N/A   Mostly Cloudy
3:56 AM 51.1 °F 46.9 °F 86% 30.05 in 6.0 mi Calm Calm - N/A   Overcast
4:56 AM 53.1 °F 48.9 °F 86% 30.05 in 6.0 mi Calm Calm - N/A   Overcast
5:56 AM 53.1 °F 48.9 °F 86% 30.06 in 6.0 mi SSE 3.5 mph - N/A   Overcast
6:56 AM 53.1 °F 48.9 °F 86% 30.07 in 3.0 mi Calm Calm - N/A   Mostly Cloudy
7:03 AM 53.6 °F 48.2 °F 82% 30.08 in 2.0 mi Calm Calm - N/A   Mostly Cloudy
7:17 AM 53.6 °F 48.2 °F 82% 30.09 in 3.0 mi Calm Calm - N/A   Mostly Cloudy
7:56 AM 55.0 °F 50.0 °F 83% 30.12 in 6.0 mi Calm Calm - N/A   Haze
8:04 AM 55.4 °F 50.0 °F 82% 30.12 in 7.0 mi Calm Calm - N/A   Scattered Clouds
8:14 AM 55.4 °F 50.0 °F 82% 30.13 in 7.0 mi Calm Calm - N/A   Mostly Cloudy
8:56 AM 60.1 °F 50.0 °F 69% 30.13 in 10.0 mi Calm Calm - N/A   Mostly Cloudy
9:10 AM 60.8 °F 50.0 °F 68% 30.14 in 10.0 mi NW 4.6 mph - N/A   Scattered Clouds
9:21 AM 60.8 °F 50.0 °F 68% 30.15 in 10.0 mi Calm Calm - N/A   Mostly Cloudy
9:56 AM 61.0 °F 48.0 °F 62% 30.15 in 10.0 mi WNW 6.9 mph - N/A   Mostly Cloudy
10:56 AM 63.0 °F 48.0 °F 58% 30.14 in 10.0 mi WNW 8.1 mph - N/A   Scattered Clouds
11:22 AM 66.2 °F 48.2 °F 52% 30.14 in 10.0 mi West 8.1 mph - N/A   Mostly Cloudy
11:40 AM 66.2 °F 46.4 °F 49% 30.14 in 10.0 mi WNW 6.9 mph - N/A   Scattered Clouds
11:56 AM 66.9 °F 46.9 °F 49% 30.14 in 10.0 mi NW 4.6 mph - N/A   Partly Cloudy
12:56 PM 70.0 °F 46.9 °F 44% 30.10 in 10.0 mi West 8.1 mph - N/A   Clear
1:56 PM 73.0 °F 46.9 °F 39% 30.07 in 10.0 mi Variable 3.5 mph - N/A   Clear
2:56 PM 75.0 °F 46.0 °F 36% 30.04 in 10.0 mi WSW 5.8 mph - N/A   Clear
3:56 PM 75.9 °F 46.0 °F 35% 30.03 in 10.0 mi NW 8.1 mph - N/A   Clear
4:56 PM 75.9 °F 46.9 °F 36% 30.02 in 10.0 mi West 5.8 mph - N/A   Clear
5:56 PM 75.0 °F 46.0 °F 36% 30.03 in 10.0 mi WNW 4.6 mph - N/A   Clear
6:56 PM 70.0 °F 48.0 °F 46% 30.05 in 10.0 mi Calm Calm - N/A   Clear
7:56 PM 63.0 °F 48.9 °F 60% 30.06 in 10.0 mi Calm Calm - N/A   Clear
8:56 PM 63.0 °F 50.0 °F 63% 30.07 in 10.0 mi SW 3.5 mph - N/A   Clear
9:56 PM 62.1 °F 50.0 °F 65% 30.09 in 10.0 mi WSW 4.6 mph - N/A   Clear
10:56 PM 60.1 °F 50.0 °F 69% 30.09 in 10.0 mi West 4.6 mph - N/A   Clear
11:56 PM 59.0 °F 50.0 °F 72% 30.09 in 10.0 mi Calm Calm - N/A   Clear